Ephrata, WA

3:43 PM PDT on August 21, 2017 (GMT -0700)
Ephrata Municipal

Weather History for KEPH - April, 2013

Change the Weather History Date:

Thursday, April 11, 2013

  Actual Average Record
Temperature  
Mean Temperature 51 °F 49 °F  
Max Temperature 61 °F 62 °F 75 °F (1988)
Min Temperature 41 °F 37 °F 24 °F (1983)
Degree Days  
Heating Degree Days 14 16  
Month to date heating degree days 144 184  
Since 1 July heating degree days 5038 5441  
Cooling Degree Days 0 0  
Month to date cooling degree days 0 0  
Year to date cooling degree days 0 0  
Growing Degree Days 2 (Base 50)    
Moisture  
Dew Point 24 °F    
Average Humidity 39    
Maximum Humidity 58    
Minimum Humidity 19    
Precipitation  
Precipitation 0.00 in 0.02 in 0.36 in (1982)
Month to date precipitation 0.40 0.20  
Year to date precipitation 1.29 2.53  
Sea Level Pressure  
Sea Level Pressure 30.08 in    
Wind  
Wind Speed 12 mph (West)    
Max Wind Speed 26 mph    
Max Gust Speed 35 mph    
Visibility 10 miles    
Events      
T = Trace of Precipitation, MM = Missing Value Source: NWS Daily Summary

Daily Weather History Graph

Daily Weather History Graph

Search for Another Location

Airport or City:

Trip Planner

Search our weather history database for the weather conditions in past years. The results will help you decide how hot, cold, wet, or windy it might be!

Date:

Astronomy

Apr. 11, 2013 Rise Set
Actual Time 6:16 AM PDT 7:42 PM PDT
Civil Twilight 5:44 AM PDT 8:14 PM PDT
Nautical Twilight 5:06 AM PDT 8:52 PM PDT
Astronomical Twilight 4:25 AM PDT 9:34 PM PDT
Moon 6:45 AM PDT (4/11) 9:29 PM PDT (4/11)
Length of Visible Light 14h 29m
Length of Day
13h 25m
New Moon, 2% of the Moon is Illuminated
Apr 11
New Moon
Apr 18
First Quarter
Apr 25
Full
May 2
Last Quarter
May 9
New

Hourly Weather History & Observations

Time (PDT) Temp. Windchill Dew Point Humidity Pressure Visibility Wind Dir Wind Speed Gust Speed Precip Events Conditions
12:53 AM 48.9 °F - 28.0 °F 44% 30.04 in 10.0 mi NW 18.4 mph 35.7 mph N/A   Clear
1:53 AM 48.0 °F - 26.1 °F 42% 30.05 in 10.0 mi WNW 13.8 mph 25.3 mph N/A   Clear
2:53 AM 46.0 °F 40.6 °F 25.0 °F 44% 30.06 in 10.0 mi NW 11.5 mph 23.0 mph N/A   Clear
3:53 AM 46.9 °F - 24.1 °F 41% 30.06 in 10.0 mi Calm Calm - N/A   Clear
4:53 AM 44.1 °F 41.5 °F 27.0 °F 51% 30.08 in 10.0 mi Variable 4.6 mph - N/A   Clear
5:53 AM 48.0 °F - 25.0 °F 41% 30.08 in 10.0 mi WSW 8.1 mph - N/A   Clear
6:53 AM 46.9 °F - 28.0 °F 48% 30.09 in 10.0 mi SW 12.7 mph 25.3 mph N/A   Clear
7:53 AM 45.0 °F 39.7 °F 30.0 °F 56% 30.10 in 10.0 mi SSW 10.4 mph - N/A   Clear
8:53 AM 46.0 °F 41.0 °F 30.0 °F 54% 30.12 in 10.0 mi South 10.4 mph - N/A   Clear
10:53 AM 48.0 °F - 32.0 °F 54% 30.13 in 10.0 mi SSE 6.9 mph - N/A   Clear
11:53 AM 50.0 °F - 30.9 °F 48% 30.12 in 10.0 mi SW 10.4 mph - N/A   Clear
12:53 PM 55.9 °F - 28.9 °F 36% 30.11 in 10.0 mi WSW 13.8 mph - N/A   Clear
1:53 PM 59.0 °F - 25.0 °F 27% 30.08 in 10.0 mi West 16.1 mph 26.5 mph N/A   Clear
2:53 PM 61.0 °F - 21.9 °F 22% 30.07 in 10.0 mi West 10.4 mph 21.9 mph N/A   Clear
3:53 PM 60.1 °F - 18.0 °F 20% 30.06 in 10.0 mi NW 12.7 mph 25.3 mph N/A   Clear
4:53 PM 60.1 °F - 17.1 °F 19% 30.05 in 10.0 mi WNW 18.4 mph 24.2 mph N/A   Clear
5:53 PM 57.9 °F - 17.1 °F 20% 30.05 in 10.0 mi WNW 18.4 mph - N/A   Clear
6:53 PM 55.0 °F - 19.0 °F 24% 30.05 in 10.0 mi WNW 16.1 mph 21.9 mph N/A   Clear
7:53 PM 51.1 °F - 19.9 °F 29% 30.06 in 10.0 mi NW 12.7 mph - N/A   Clear
8:53 PM 46.9 °F - 21.9 °F 37% 30.07 in 10.0 mi WNW 12.7 mph - N/A   Clear
9:53 PM 44.1 °F 40.1 °F 23.0 °F 43% 30.09 in 10.0 mi WSW 6.9 mph - N/A   Clear
10:53 PM 46.9 °F - 21.9 °F 37% 30.08 in 10.0 mi NW 16.1 mph 19.6 mph N/A   Clear
11:53 PM 44.1 °F 39.0 °F 21.9 °F 42% 30.09 in 10.0 mi NW 9.2 mph - N/A   Clear